Weather History for Reno, NV

Change the Weather History Date:

Wednesday, February 13, 2013

  Actual Average Record
Temperature  
Mean Temperature 40 °F 40 °F  
Max Temperature 55 °F 51 °F 71 °F (1971)
Min Temperature 24 °F 29 °F -5 °F (1949)
Degree Days  
Heating Degree Days 25 25  
Month to date heating degree days 348 346  
Since 1 July heating degree days 3095 3283  
Cooling Degree Days 0 0  
Month to date cooling degree days 0 0  
Year to date cooling degree days 0 0  
Moisture  
Dew Point 22 °F    
Average Humidity 54    
Maximum Humidity 81    
Minimum Humidity 27    
Precipitation  
Precipitation 0.00 in 0.03 in 0.62 in (1954)
Month to date precipitation T 0.43  
Year to date precipitation 0.12 1.46  
Snow  
Snow 0.00 in 0.20 in 3.90 in (1954)
Month to date snowfall 0.0 2.2  
Since 1 July snowfall 9.3 16.2  
Snow Depth 0.00 in    
Sea Level Pressure  
Sea Level Pressure 30.35 in    
Wind  
Wind Speed 2 mph (NW)    
Max Wind Speed 9 mph    
Max Gust Speed 13 mph    
Visibility 10 miles    
Events      
T = Trace of Precipitation, MM = Missing Value Source: NWS Daily Summary

Daily Weather History Graph

Daily Weather History Graph

Search for Another Location

Airport:

Trip Planner

Search our weather history database for the weather conditions in past years. The results will help you decide how hot, cold, wet, or windy it might be!

Date:

Astronomy

Feb. 13, 2013 Rise Set
Actual Time 6:53 AM PST 5:33 PM PST
Civil Twilight 6:25 AM PST 6:01 PM PST
Nautical Twilight 5:54 AM PST 6:33 PM PST
Astronomical Twilight 5:22 AM PST 7:04 PM PST
Moon 8:26 AM PST (2/13) 9:40 PM PST (2/13)
Length of Visible Light 11h 35m
Length of Day
10h 40m
Waxing Crescent, 14% of the Moon is Illuminated
Feb 13
Waxing Crescent
Feb 17
First Quarter
Feb 25
Full
Mar 4
Last Quarter
Mar 11
New

Hourly Weather History & Observations

Time (PST) Temp. Windchill Dew Point Humidity Pressure Visibility Wind Dir Wind Speed Gust Speed Precip Events Conditions
12:55 AM 30.9 °F - 21.0 °F 67% 30.39 in 10.0 mi Calm Calm - N/A   Clear
1:55 AM 28.9 °F - 19.9 °F 69% 30.39 in 10.0 mi Calm Calm - N/A   Clear
2:55 AM 28.0 °F 24.2 °F 19.9 °F 72% 30.38 in 10.0 mi South 3.5 mph - N/A   Clear
3:55 AM 26.1 °F - 19.0 °F 75% 30.38 in 10.0 mi Calm Calm - N/A   Clear
4:55 AM 27.0 °F 23.0 °F 19.9 °F 75% 30.38 in 10.0 mi East 3.5 mph - N/A   Clear
5:55 AM 26.1 °F - 19.0 °F 75% 30.40 in 10.0 mi Calm Calm - N/A   Clear
6:55 AM 25.0 °F - 19.0 °F 78% 30.43 in 10.0 mi Calm Calm - N/A   Clear
7:55 AM 27.0 °F - 19.9 °F 75% 30.44 in 10.0 mi Calm Calm - N/A   Clear
8:55 AM 33.1 °F - 21.9 °F 64% 30.43 in 10.0 mi Calm Calm - N/A   Clear
9:55 AM 37.9 °F - 21.9 °F 53% 30.42 in 10.0 mi Calm Calm - N/A   Partly Cloudy
10:55 AM 44.1 °F - 21.9 °F 42% 30.40 in 10.0 mi Calm Calm - N/A   Partly Cloudy
11:55 AM 48.0 °F - 23.0 °F 37% 30.36 in 10.0 mi Calm Calm - N/A   Partly Cloudy
12:55 PM 52.0 °F - 23.0 °F 32% 30.33 in 10.0 mi WNW 3.5 mph - N/A   Partly Cloudy
1:55 PM 53.1 °F - 23.0 °F 31% 30.30 in 10.0 mi South 4.6 mph - N/A   Partly Cloudy
2:55 PM 55.0 °F - 23.0 °F 29% 30.30 in 10.0 mi West 3.5 mph - N/A   Partly Cloudy
3:55 PM 55.0 °F - 24.1 °F 30% 30.27 in 10.0 mi NNE 6.9 mph - N/A   Partly Cloudy
4:55 PM 54.0 °F - 24.1 °F 31% 30.28 in 10.0 mi North 4.6 mph - N/A   Partly Cloudy
5:55 PM 50.0 °F - 24.1 °F 36% 30.29 in 10.0 mi ESE 3.5 mph - N/A   Clear
6:55 PM 46.9 °F - 24.1 °F 41% 30.32 in 10.0 mi Calm Calm - N/A   Clear
7:55 PM 43.0 °F - 24.1 °F 47% 30.33 in 10.0 mi Calm Calm - N/A   Clear
8:55 PM 42.1 °F 40.2 °F 24.1 °F 49% 30.31 in 10.0 mi WNW 3.5 mph - N/A   Clear
9:55 PM 39.0 °F 35.7 °F 24.1 °F 55% 30.32 in 10.0 mi WNW 4.6 mph - N/A   Clear
10:55 PM 37.0 °F - 23.0 °F 57% 30.33 in 10.0 mi Calm Calm - N/A   Clear
11:55 PM 32.0 °F - 21.9 °F 66% 30.32 in 10.0 mi Calm Calm - N/A   Clear